Time,TemperatureF,DewpointF,PressureIn,WindDirection,WindDirectionDegrees,WindSpeedMPH,WindSpeedGustMPH,Humidity,HourlyPrecipIn,Conditions,Clouds,dailyrainin,SoftwareType,DateUTC
2013-04-03 00:00:00,35.2,8.2,30.01,West,281,3.5,3.5,32,0.00,CLR,CLR,0.00,WeatherDisplay:10.36,2013-04-03 04:00:00,
2013-04-03 00:01:00,35.2,8.2,30.01,West,281,0.0,0.1,32,0.00,CLR,CLR,0.00,WeatherDisplay:10.36,2013-04-03 04:01:00,
2013-04-03 00:05:00,35.0,8.1,30.01,WNW,300,6.9,6.9,32,0.00,CLR,CLR,0.00,WeatherDisplay:10.36,2013-04-03 04:05:00,
2013-04-03 00:10:00,34.9,8.0,30.01,WNW,297,0.0,0.0,32,0.00,CLR,CLR,0.00,WeatherDisplay:10.36,2013-04-03 04:10:00,
2013-04-03 00:15:00,34.7,7.8,30.01,WNW,287,1.2,1.2,32,0.00,CLR,CLR,0.00,WeatherDisplay:10.36,2013-04-03 04:15:00,
2013-04-03 00:20:00,34.6,7.7,30.01,WNW,303,3.0,3.0,32,0.00,CLR,CLR,0.00,WeatherDisplay:10.36,2013-04-03 04:20:00,
2013-04-03 00:25:00,34.6,7.7,30.01,NW,312,2.3,2.3,32,0.00,CLR,CLR,0.00,WeatherDisplay:10.36,2013-04-03 04:25:00,
2013-04-03 00:30:00,34.4,7.5,30.01,WNW,298,1.2,0.0,32,0.00,CLR,CLR,0.00,WeatherDisplay:10.36,2013-04-03 04:30:00,
2013-04-03 00:36:00,34.4,7.5,30.01,West,270,3.5,3.5,32,0.00,CLR,CLR,0.00,WeatherDisplay:10.36,2013-04-03 04:36:00,
2013-04-03 00:41:00,34.3,6.7,30.01,ENE,68,3.5,3.5,31,0.00,CLR,CLR,0.00,WeatherDisplay:10.36,2013-04-03 04:41:00,
2013-04-03 00:46:00,34.3,7.4,30.01,NNW,344,3.5,3.5,32,0.00,CLR,CLR,0.00,WeatherDisplay:10.36,2013-04-03 04:46:00,
2013-04-03 00:51:00,34.3,6.7,30.01,WSW,247,3.5,3.5,31,0.00,CLR,CLR,0.00,WeatherDisplay:10.36,2013-04-03 04:51:00,
2013-04-03 00:56:00,34.3,6.7,30.01,NNW,333,3.5,3.5,31,0.00,CLR,CLR,0.00,WeatherDisplay:10.36,2013-04-03 04:56:00,
2013-04-03 01:01:00,34.3,7.4,30.01,NW,318,2.3,2.3,32,0.00,CLR,CLR,0.00,WeatherDisplay:10.36,2013-04-03 05:01:00,
2013-04-03 01:06:00,34.3,6.7,30.01,WNW,293,1.2,1.2,31,0.00,CLR,CLR,0.00,WeatherDisplay:10.36,2013-04-03 05:06:00,
2013-04-03 01:12:00,34.1,7.3,30.01,WNW,290,2.3,2.3,32,0.00,CLR,CLR,0.00,WeatherDisplay:10.36,2013-04-03 05:12:00,
2013-04-03 01:17:00,34.1,6.6,30.01,West,268,4.0,4.0,31,0.00,CLR,CLR,0.00,WeatherDisplay:10.36,2013-04-03 05:17:00,
2013-04-03 01:22:00,34.1,7.3,30.01,SSW,206,1.2,0.0,32,0.00,CLR,CLR,0.00,WeatherDisplay:10.36,2013-04-03 05:22:00,
2013-04-03 01:27:00,34.1,7.3,30.01,West,276,3.5,3.5,32,0.00,CLR,CLR,0.00,WeatherDisplay:10.36,2013-04-03 05:27:00,
2013-04-03 01:33:00,34.1,7.3,30.01,SW,236,2.3,2.3,32,0.00,CLR,CLR,0.00,WeatherDisplay:10.36,2013-04-03 05:33:00,
2013-04-03 01:38:00,34.1,7.3,30.01,WSW,245,1.2,0.0,32,0.00,CLR,CLR,0.00,WeatherDisplay:10.36,2013-04-03 05:38:00,
2013-04-03 01:43:00,34.1,8.0,30.02,West,276,3.5,3.5,33,0.00,CLR,CLR,0.00,WeatherDisplay:10.36,2013-04-03 05:43:00,
2013-04-03 01:48:00,34.0,7.9,30.01,WNW,293,6.9,6.9,33,0.00,CLR,CLR,0.00,WeatherDisplay:10.36,2013-04-03 05:48:00,
2013-04-03 01:53:00,34.0,8.5,30.01,West,278,3.5,3.5,34,0.00,CLR,CLR,0.00,WeatherDisplay:10.36,2013-04-03 05:53:00,
2013-04-03 01:58:00,34.0,8.5,30.01,SW,235,10.4,10.4,34,0.00,CLR,CLR,0.00,WeatherDisplay:10.36,2013-04-03 05:58:00,
2013-04-03 02:04:00,34.0,8.5,30.01,West,259,5.8,5.8,34,0.00,CLR,CLR,0.00,WeatherDisplay:10.36,2013-04-03 06:04:00,
2013-04-03 02:09:00,33.8,8.4,30.01,South,179,1.2,0.0,34,0.00,CLR,CLR,0.00,WeatherDisplay:10.36,2013-04-03 06:09:00,
2013-04-03 02:14:00,33.7,8.9,30.01,West,281,1.2,0.0,35,0.00,CLR,CLR,0.00,WeatherDisplay:10.36,2013-04-03 06:14:00,
2013-04-03 02:19:00,33.5,9.4,30.01,ENE,74,1.2,1.2,36,0.00,CLR,CLR,0.00,WeatherDisplay:10.36,2013-04-03 06:19:00,
2013-04-03 02:24:00,33.5,8.7,30.01,West,270,6.9,0.0,35,0.00,CLR,CLR,0.00,WeatherDisplay:10.36,2013-04-03 06:24:00,
2013-04-03 02:29:00,33.4,8.6,30.01,SW,229,3.5,3.5,35,0.00,CLR,CLR,0.00,WeatherDisplay:10.36,2013-04-03 06:29:00,
2013-04-03 02:34:00,33.4,8.6,30.01,SW,228,2.3,0.0,35,0.00,CLR,CLR,0.00,WeatherDisplay:10.36,2013-04-03 06:34:00,
2013-04-03 02:39:00,33.2,9.1,30.01,West,276,2.3,2.3,36,0.00,CLR,CLR,0.00,WeatherDisplay:10.36,2013-04-03 06:39:00,
2013-04-03 02:44:00,33.2,9.1,30.00,West,259,4.6,4.6,36,0.00,CLR,CLR,0.00,WeatherDisplay:10.36,2013-04-03 06:44:00,
2013-04-03 02:49:00,33.1,9.6,30.00,SSW,211,3.5,3.5,37,0.00,CLR,CLR,0.00,WeatherDisplay:10.36,2013-04-03 06:49:00,
2013-04-03 02:54:00,32.9,9.4,30.00,WSW,240,0.0,0.0,37,0.00,CLR,CLR,0.00,WeatherDisplay:10.36,2013-04-03 06:54:00,
2013-04-03 02:59:00,32.8,10.5,30.00,WSW,255,3.5,3.6,39,0.00,CLR,CLR,0.00,WeatherDisplay:10.36,2013-04-03 06:59:00,
2013-04-03 03:04:00,32.8,10.5,30.00,WSW,255,1.2,1.2,39,0.00,CLR,CLR,0.00,WeatherDisplay:10.36,2013-04-03 07:04:00,
2013-04-03 03:10:00,32.9,10.6,30.00,WSW,255,2.3,2.3,39,0.00,CLR,CLR,0.00,WeatherDisplay:10.36,2013-04-03 07:10:00,
2013-04-03 03:15:00,32.9,10.6,30.00,West,267,0.0,3.0,39,0.00,CLR,CLR,0.00,WeatherDisplay:10.36,2013-04-03 07:15:00,
2013-04-03 03:20:00,32.8,10.5,30.00,WSW,239,0.0,5.0,39,0.00,CLR,CLR,0.00,WeatherDisplay:10.36,2013-04-03 07:20:00,
2013-04-03 03:25:00,32.8,10.5,30.00,West,260,0.0,4.0,39,0.00,CLR,CLR,0.00,WeatherDisplay:10.36,2013-04-03 07:25:00,
2013-04-03 03:30:00,32.8,10.5,30.00,WNW,284,2.3,0.0,39,0.00,CLR,CLR,0.00,WeatherDisplay:10.36,2013-04-03 07:30:00,
2013-04-03 03:35:00,32.7,10.4,30.00,WSW,240,9.2,9.2,39,0.00,CLR,CLR,0.00,WeatherDisplay:10.36,2013-04-03 07:35:00,
2013-04-03 03:40:00,32.7,10.4,30.00,WSW,247,2.3,2.3,39,0.00,CLR,CLR,0.00,WeatherDisplay:10.36,2013-04-03 07:40:00,
2013-04-03 03:46:00,32.7,10.4,30.00,SW,226,3.5,3.5,39,0.00,CLR,CLR,0.00,WeatherDisplay:10.36,2013-04-03 07:46:00,
2013-04-03 03:51:00,32.7,10.4,30.00,SSW,197,7.0,7.0,39,0.00,CLR,CLR,0.00,WeatherDisplay:10.36,2013-04-03 07:51:00,
2013-04-03 03:56:00,32.7,11.0,30.00,SW,234,3.5,3.5,40,0.00,CLR,CLR,0.00,WeatherDisplay:10.36,2013-04-03 07:56:00,
2013-04-03 04:01:00,32.7,10.4,30.00,SSW,196,0.0,0.8,39,0.00,CLR,CLR,0.00,WeatherDisplay:10.36,2013-04-03 08:01:00,
2013-04-03 04:07:00,32.5,10.8,30.00,SSW,196,2.3,2.3,40,0.00,CLR,CLR,0.00,WeatherDisplay:10.36,2013-04-03 08:07:00,
2013-04-03 04:12:00,32.4,10.7,30.00,WNW,301,0.0,0.0,40,0.00,CLR,CLR,0.00,WeatherDisplay:10.36,2013-04-03 08:12:00,
2013-04-03 04:17:00,32.2,11.1,30.00,SW,220,3.0,3.0,41,0.00,CLR,CLR,0.00,WeatherDisplay:10.36,2013-04-03 08:17:00,
2013-04-03 04:22:00,32.1,10.5,30.00,WSW,244,2.0,2.0,40,0.00,CLR,CLR,0.00,WeatherDisplay:10.36,2013-04-03 08:22:00,
2013-04-03 04:27:00,32.1,11.0,30.01,WSW,240,4.0,4.0,41,0.00,CLR,CLR,0.00,WeatherDisplay:10.36,2013-04-03 08:27:00,
2013-04-03 04:32:00,31.9,10.8,30.01,South,186,0.0,0.0,41,0.00,CLR,CLR,0.00,WeatherDisplay:10.36,2013-04-03 08:32:00,
2013-04-03 04:37:00,31.9,10.8,30.01,WSW,249,4.6,4.6,41,0.00,CLR,CLR,0.00,WeatherDisplay:10.36,2013-04-03 08:37:00,
2013-04-03 04:42:00,31.8,11.3,30.01,SW,233,4.0,4.0,42,0.00,CLR,CLR,0.00,WeatherDisplay:10.36,2013-04-03 08:42:00,
2013-04-03 04:47:00,31.8,11.3,30.01,SW,225,3.5,3.5,42,0.00,CLR,CLR,0.00,WeatherDisplay:10.36,2013-04-03 08:47:00,
2013-04-03 04:52:00,31.9,11.4,30.01,WNW,297,3.5,3.5,42,0.00,CLR,CLR,0.00,WeatherDisplay:10.36,2013-04-03 08:52:00,
2013-04-03 04:57:00,31.9,11.9,30.01,SSW,210,1.2,0.0,43,0.00,CLR,CLR,0.00,WeatherDisplay:10.36,2013-04-03 08:57:00,
2013-04-03 05:02:00,31.9,11.9,30.02,WSW,253,1.2,0.0,43,0.00,CLR,CLR,0.00,WeatherDisplay:10.36,2013-04-03 09:02:00,
2013-04-03 05:07:00,31.8,11.8,30.02,West,266,2.3,2.3,43,0.00,CLR,CLR,0.00,WeatherDisplay:10.36,2013-04-03 09:07:00,
2013-04-03 05:12:00,31.8,12.3,30.02,West,262,0.0,0.0,44,0.00,CLR,CLR,0.00,WeatherDisplay:10.36,2013-04-03 09:12:00,
2013-04-03 05:18:00,31.8,11.8,30.02,SSW,205,1.2,1.2,43,0.00,CLR,CLR,0.00,WeatherDisplay:10.36,2013-04-03 09:18:00,
2013-04-03 05:23:00,31.6,11.6,30.02,SSW,211,0.0,0.0,43,0.00,CLR,CLR,0.00,WeatherDisplay:10.36,2013-04-03 09:23:00,
2013-04-03 05:28:00,31.5,11.5,30.02,SSW,211,2.0,2.0,43,0.00,CLR,CLR,0.00,WeatherDisplay:10.36,2013-04-03 09:28:00,
2013-04-03 05:33:00,31.3,11.4,30.03,SW,216,0.0,0.0,43,0.00,CLR,CLR,0.00,WeatherDisplay:10.36,2013-04-03 09:33:00,
2013-04-03 05:38:00,31.2,11.8,30.03,SW,216,0.0,0.0,44,0.00,CLR,CLR,0.00,WeatherDisplay:10.36,2013-04-03 09:38:00,
2013-04-03 05:43:00,31.0,11.1,30.03,SSW,207,1.2,1.2,43,0.00,CLR,CLR,0.00,WeatherDisplay:10.36,2013-04-03 09:43:00,
2013-04-03 05:48:00,30.9,11.0,30.03,SW,233,0.0,0.0,43,0.00,CLR,CLR,0.00,WeatherDisplay:10.36,2013-04-03 09:48:00,
2013-04-03 05:53:00,30.9,11.0,30.03,WSW,240,3.5,3.5,43,0.00,CLR,CLR,0.00,WeatherDisplay:10.36,2013-04-03 09:53:00,
2013-04-03 05:58:00,30.9,11.0,30.03,WSW,240,0.0,0.0,43,0.00,CLR,CLR,0.00,WeatherDisplay:10.36,2013-04-03 09:58:00,
2013-04-03 06:03:00,30.9,11.0,30.03,West,274,3.5,3.5,43,0.00,CLR,CLR,0.00,WeatherDisplay:10.36,2013-04-03 10:03:00,
2013-04-03 06:08:00,31.2,11.3,30.03,WSW,252,2.3,2.3,43,0.00,CLR,CLR,0.00,WeatherDisplay:10.36,2013-04-03 10:08:00,
2013-04-03 06:14:00,31.3,11.9,30.03,WNW,294,2.3,2.3,44,0.00,CLR,CLR,0.00,WeatherDisplay:10.36,2013-04-03 10:14:00,
2013-04-03 06:19:00,31.3,11.4,30.04,West,271,2.3,2.3,43,0.00,CLR,CLR,0.00,WeatherDisplay:10.36,2013-04-03 10:19:00,
2013-04-03 06:24:00,31.3,11.9,30.04,WNW,302,4.6,4.6,44,0.00,CLR,CLR,0.00,WeatherDisplay:10.36,2013-04-03 10:24:00,
2013-04-03 06:29:00,31.5,11.5,30.04,WNW,297,3.5,3.5,43,0.00,CLR,CLR,0.00,WeatherDisplay:10.36,2013-04-03 10:29:00,
2013-04-03 06:34:00,31.5,11.5,30.05,WSW,245,6.0,6.0,43,0.00,CLR,CLR,0.00,WeatherDisplay:10.36,2013-04-03 10:34:00,
2013-04-03 06:39:00,31.5,11.5,30.05,West,265,1.2,1.2,43,0.00,CLR,CLR,0.00,WeatherDisplay:10.36,2013-04-03 10:39:00,
2013-04-03 06:45:00,31.5,11.5,30.05,West,281,1.2,1.2,43,0.00,CLR,CLR,0.00,WeatherDisplay:10.36,2013-04-03 10:45:00,
2013-04-03 06:50:00,31.3,11.9,30.05,West,281,0.0,1.0,44,0.00,CLR,CLR,0.00,WeatherDisplay:10.36,2013-04-03 10:50:00,
2013-04-03 06:55:00,31.2,12.3,30.06,West,281,0.0,0.0,45,0.00,CLR,CLR,0.00,WeatherDisplay:10.36,2013-04-03 10:55:00,
2013-04-03 07:00:00,30.9,12.5,30.06,West,259,2.3,2.3,46,0.00,CLR,CLR,0.00,WeatherDisplay:10.36,2013-04-03 11:00:00,
2013-04-03 07:05:00,30.9,12.0,30.06,SW,216,2.3,2.3,45,0.00,CLR,CLR,0.00,WeatherDisplay:10.36,2013-04-03 11:05:00,
2013-04-03 07:10:00,31.0,12.1,30.06,WNW,297,2.3,2.3,45,0.00,CLR,CLR,0.00,WeatherDisplay:10.36,2013-04-03 11:10:00,
2013-04-03 07:15:00,31.0,12.1,30.07,SW,234,1.0,1.0,45,0.00,CLR,CLR,0.00,WeatherDisplay:10.36,2013-04-03 11:15:00,
2013-04-03 07:20:00,31.2,12.3,30.07,SW,234,2.3,2.3,45,0.00,CLR,CLR,0.00,WeatherDisplay:10.36,2013-04-03 11:20:00,
2013-04-03 07:25:00,31.3,12.4,30.07,SW,224,2.3,2.3,45,0.00,CLR,CLR,0.00,WeatherDisplay:10.36,2013-04-03 11:25:00,
2013-04-03 07:30:00,31.5,12.6,30.07,SSW,210,2.3,0.0,45,0.00,CLR,CLR,0.00,WeatherDisplay:10.36,2013-04-03 11:30:00,
2013-04-03 07:35:00,31.5,12.6,30.07,WSW,254,1.2,0.0,45,0.00,CLR,CLR,0.00,WeatherDisplay:10.36,2013-04-03 11:35:00,
2013-04-03 07:41:00,31.8,12.8,30.07,WSW,241,2.0,2.0,45,0.00,CLR,CLR,0.00,WeatherDisplay:10.36,2013-04-03 11:41:00,
2013-04-03 07:46:00,32.1,13.1,30.07,WSW,241,1.2,1.2,45,0.00,CLR,CLR,0.00,WeatherDisplay:10.36,2013-04-03 11:46:00,
2013-04-03 07:52:00,32.2,13.2,30.08,WNW,285,2.3,2.3,45,0.00,CLR,CLR,0.00,WeatherDisplay:10.36,2013-04-03 11:52:00,
2013-04-03 07:57:00,32.5,12.5,30.08,South,176,3.5,3.5,43,0.00,CLR,CLR,0.00,WeatherDisplay:10.36,2013-04-03 11:57:00,
2013-04-03 08:02:00,32.7,12.6,30.08,NW,316,3.5,3.5,43,0.00,CLR,CLR,0.00,WeatherDisplay:10.36,2013-04-03 12:02:00,
2013-04-03 08:07:00,32.7,12.6,30.08,WSW,243,3.0,3.0,43,0.00,CLR,CLR,0.00,WeatherDisplay:10.36,2013-04-03 12:07:00,
2013-04-03 08:12:00,32.9,12.8,30.08,West,267,3.0,3.0,43,0.00,CLR,CLR,0.00,WeatherDisplay:10.36,2013-04-03 12:12:00,
2013-04-03 08:17:00,32.9,12.8,30.08,West,273,3.5,3.5,43,0.00,CLR,CLR,0.00,WeatherDisplay:10.36,2013-04-03 12:17:00,
2013-04-03 08:23:00,33.1,12.5,30.08,West,262,2.3,2.3,42,0.00,CLR,CLR,0.00,WeatherDisplay:10.36,2013-04-03 12:23:00,
2013-04-03 08:28:00,33.2,12.6,30.08,West,266,2.3,2.3,42,0.00,CLR,CLR,0.00,WeatherDisplay:10.36,2013-04-03 12:28:00,
2013-04-03 08:33:00,33.2,12.6,30.08,West,270,3.5,3.5,42,0.00,CLR,CLR,0.00,WeatherDisplay:10.36,2013-04-03 12:33:00,
2013-04-03 08:38:00,33.2,13.1,30.08,WNW,297,5.8,5.8,43,0.00,CLR,CLR,0.00,WeatherDisplay:10.36,2013-04-03 12:38:00,
2013-04-03 08:43:00,33.2,12.6,30.08,WSW,255,2.3,2.3,42,0.00,CLR,CLR,0.00,WeatherDisplay:10.36,2013-04-03 12:43:00,
2013-04-03 08:48:00,33.2,12.6,30.08,WSW,252,6.9,6.9,42,0.00,CLR,CLR,0.00,WeatherDisplay:10.36,2013-04-03 12:48:00,
2013-04-03 08:53:00,33.2,12.6,30.08,WNW,299,6.9,6.9,42,0.00,CLR,CLR,0.00,WeatherDisplay:10.36,2013-04-03 12:53:00,
2013-04-03 08:58:00,33.5,12.8,30.07,West,271,3.5,3.5,42,0.00,CLR,CLR,0.00,WeatherDisplay:10.36,2013-04-03 12:58:00,
2013-04-03 09:03:00,33.8,12.6,30.07,WNW,297,5.0,5.0,41,0.00,CLR,CLR,0.00,WeatherDisplay:10.36,2013-04-03 13:03:00,
2013-04-03 09:08:00,34.0,12.7,30.08,West,264,4.6,4.6,41,0.00,CLR,CLR,0.00,WeatherDisplay:10.36,2013-04-03 13:08:00,
2013-04-03 09:13:00,34.1,12.8,30.07,NNW,345,5.0,5.0,41,0.00,CLR,CLR,0.00,WeatherDisplay:10.36,2013-04-03 13:13:00,
2013-04-03 09:19:00,34.6,13.3,30.07,WNW,288,5.0,5.0,41,0.00,CLR,CLR,0.00,WeatherDisplay:10.36,2013-04-03 13:19:00,
2013-04-03 09:24:00,34.9,12.4,30.07,West,269,3.5,3.5,39,0.00,CLR,CLR,0.00,WeatherDisplay:10.36,2013-04-03 13:24:00,
2013-04-03 09:29:00,35.0,11.9,30.07,WNW,303,4.0,4.0,38,0.00,CLR,CLR,0.00,WeatherDisplay:10.36,2013-04-03 13:29:00,
2013-04-03 09:34:00,34.9,11.2,30.07,West,279,4.0,4.0,37,0.00,CLR,CLR,0.00,WeatherDisplay:10.36,2013-04-03 13:34:00,
2013-04-03 09:39:00,34.7,11.0,30.07,WSW,246,5.8,5.8,37,0.00,CLR,CLR,0.00,WeatherDisplay:10.36,2013-04-03 13:39:00,
2013-04-03 09:45:00,35.0,11.9,30.06,NW,310,4.0,4.0,38,0.00,CLR,CLR,0.00,WeatherDisplay:10.36,2013-04-03 13:45:00,
2013-04-03 09:50:00,35.3,11.6,30.06,WNW,302,1.0,9.0,37,0.00,CLR,CLR,0.00,WeatherDisplay:10.36,2013-04-03 13:50:00,
2013-04-03 09:55:00,35.9,13.3,30.06,WSW,242,2.0,2.0,39,0.00,CLR,CLR,0.00,WeatherDisplay:10.36,2013-04-03 13:55:00,
2013-04-03 10:00:00,35.6,11.9,30.06,West,269,11.5,11.5,37,0.00,CLR,CLR,0.00,WeatherDisplay:10.36,2013-04-03 14:00:00,
2013-04-03 10:05:00,35.3,12.2,30.06,SW,235,5.8,5.8,38,0.00,CLR,CLR,0.00,WeatherDisplay:10.36,2013-04-03 14:05:00,
2013-04-03 10:10:00,35.6,12.5,30.06,NW,309,3.5,3.5,38,0.00,CLR,CLR,0.00,WeatherDisplay:10.36,2013-04-03 14:10:00,
2013-04-03 10:16:00,36.2,13.0,30.06,West,274,3.5,3.5,38,0.00,CLR,CLR,0.00,WeatherDisplay:10.36,2013-04-03 14:16:00,
2013-04-03 10:21:00,36.8,12.9,30.07,SW,224,6.9,6.9,37,0.00,CLR,CLR,0.00,WeatherDisplay:10.36,2013-04-03 14:21:00,
2013-04-03 10:26:00,36.6,12.1,30.06,SW,214,9.2,9.2,36,0.00,CLR,CLR,0.00,WeatherDisplay:10.36,2013-04-03 14:26:00,
2013-04-03 10:31:00,36.8,12.9,30.06,WSW,255,3.5,3.5,37,0.00,CLR,CLR,0.00,WeatherDisplay:10.36,2013-04-03 14:31:00,
2013-04-03 10:36:00,37.0,11.8,30.06,SSW,203,8.0,8.0,35,0.00,CLR,CLR,0.00,WeatherDisplay:10.36,2013-04-03 14:36:00,
2013-04-03 10:42:00,37.2,12.0,30.06,SW,228,10.4,10.4,35,0.00,CLR,CLR,0.00,WeatherDisplay:10.36,2013-04-03 14:42:00,
2013-04-03 10:47:00,37.6,11.7,30.06,WSW,256,4.6,4.6,34,0.00,CLR,CLR,0.00,WeatherDisplay:10.36,2013-04-03 14:47:00,
2013-04-03 10:52:00,37.8,11.9,30.06,NW,309,5.8,5.8,34,0.00,CLR,CLR,0.00,WeatherDisplay:10.36,2013-04-03 14:52:00,
2013-04-03 10:57:00,37.9,12.0,30.06,WNW,295,3.5,3.5,34,0.00,CLR,CLR,0.00,WeatherDisplay:10.36,2013-04-03 14:57:00,
2013-04-03 11:02:00,37.8,9.1,30.06,West,268,6.9,6.9,30,0.00,CLR,CLR,0.00,WeatherDisplay:10.36,2013-04-03 15:02:00,
2013-04-03 11:07:00,37.6,9.6,30.07,WNW,295,4.0,4.0,31,0.00,CLR,CLR,0.00,WeatherDisplay:10.36,2013-04-03 15:07:00,
2013-04-03 11:12:00,37.9,7.6,30.07,WNW,285,5.8,5.8,28,0.00,CLR,CLR,0.00,WeatherDisplay:10.36,2013-04-03 15:12:00,
2013-04-03 11:17:00,38.3,8.8,30.07,WSW,238,4.6,0.0,29,0.00,CLR,CLR,0.00,WeatherDisplay:10.36,2013-04-03 15:17:00,
2013-04-03 11:23:00,38.9,10.1,30.07,WNW,288,4.6,4.6,30,0.00,CLR,CLR,0.00,WeatherDisplay:10.36,2013-04-03 15:23:00,
2013-04-03 11:28:00,39.2,10.3,30.07,West,276,4.6,4.6,30,0.00,CLR,CLR,0.00,WeatherDisplay:10.36,2013-04-03 15:28:00,
2013-04-03 11:33:00,39.6,9.9,30.07,SW,224,6.9,6.9,29,0.00,CLR,CLR,0.00,WeatherDisplay:10.36,2013-04-03 15:33:00,
2013-04-03 11:38:00,40.1,10.3,30.07,WSW,239,2.3,2.3,29,0.00,CLR,CLR,0.00,WeatherDisplay:10.36,2013-04-03 15:38:00,
2013-04-03 11:43:00,40.5,9.1,30.07,SSW,204,3.5,3.5,27,0.00,CLR,CLR,0.00,WeatherDisplay:10.36,2013-04-03 15:43:00,
2013-04-03 11:49:00,40.5,9.1,30.07,NW,312,6.9,6.9,27,0.00,CLR,CLR,0.00,WeatherDisplay:10.36,2013-04-03 15:49:00,
2013-04-03 11:54:00,40.5,9.1,30.07,West,271,11.5,11.5,27,0.00,CLR,CLR,0.00,WeatherDisplay:10.36,2013-04-03 15:54:00,
2013-04-03 11:59:00,40.5,9.9,30.07,NW,317,2.3,2.3,28,0.00,CLR,CLR,0.00,WeatherDisplay:10.36,2013-04-03 15:59:00,
2013-04-03 12:04:00,41.1,10.4,30.07,South,174,11.0,11.0,28,0.00,CLR,CLR,0.00,WeatherDisplay:10.36,2013-04-03 16:04:00,
2013-04-03 12:09:00,40.8,10.2,30.07,NW,314,3.5,3.5,28,0.00,CLR,CLR,0.00,WeatherDisplay:10.36,2013-04-03 16:09:00,
2013-04-03 12:14:00,41.1,10.4,30.06,West,269,5.8,5.8,28,0.00,CLR,CLR,0.00,WeatherDisplay:10.36,2013-04-03 16:14:00,
2013-04-03 12:19:00,41.2,9.7,30.07,WSW,257,5.8,5.8,27,0.00,CLR,CLR,0.00,WeatherDisplay:10.36,2013-04-03 16:19:00,
2013-04-03 12:24:00,41.2,10.5,30.07,NW,314,4.6,4.6,28,0.00,CLR,CLR,0.00,WeatherDisplay:10.36,2013-04-03 16:24:00,
2013-04-03 12:29:00,41.1,8.8,30.06,WNW,283,10.4,10.4,26,0.00,CLR,CLR,0.00,WeatherDisplay:10.36,2013-04-03 16:29:00,
2013-04-03 12:35:00,41.3,9.8,30.06,WSW,256,5.8,5.8,27,0.00,CLR,CLR,0.00,WeatherDisplay:10.36,2013-04-03 16:35:00,
2013-04-03 12:40:00,42.1,10.5,30.06,West,273,0.0,7.0,27,0.00,CLR,CLR,0.00,WeatherDisplay:10.36,2013-04-03 16:40:00,
2013-04-03 12:45:00,43.2,11.4,30.06,WSW,238,10.4,10.4,27,0.00,CLR,CLR,0.00,WeatherDisplay:10.36,2013-04-03 16:45:00,
2013-04-03 12:50:00,42.9,9.4,30.05,SW,217,3.0,15.0,25,0.00,CLR,CLR,0.00,WeatherDisplay:10.36,2013-04-03 16:50:00,
2013-04-03 12:55:00,42.9,10.3,30.06,SSW,198,16.1,16.1,26,0.00,CLR,CLR,0.00,WeatherDisplay:10.36,2013-04-03 16:55:00,
2013-04-03 13:00:00,42.6,10.1,30.05,West,269,3.0,10.0,26,0.00,CLR,CLR,0.00,WeatherDisplay:10.36,2013-04-03 17:00:00,
2013-04-03 13:05:00,42.8,11.9,30.05,West,275,2.0,5.0,28,0.00,CLR,CLR,0.00,WeatherDisplay:10.36,2013-04-03 17:05:00,
2013-04-03 13:10:00,43.2,9.7,30.05,SW,235,3.0,7.0,25,0.00,CLR,CLR,0.00,WeatherDisplay:10.36,2013-04-03 17:10:00,
2013-04-03 13:15:00,43.5,9.0,30.05,SE,124,3.5,3.5,24,0.00,CLR,CLR,0.00,WeatherDisplay:10.36,2013-04-03 17:15:00,
2013-04-03 13:20:00,43.3,10.7,30.05,SSE,163,2.3,2.3,26,0.00,CLR,CLR,0.00,WeatherDisplay:10.36,2013-04-03 17:20:00,
2013-04-03 13:25:00,44.5,10.8,30.05,West,279,3.5,3.5,25,0.00,CLR,CLR,0.00,WeatherDisplay:10.36,2013-04-03 17:25:00,
2013-04-03 13:30:00,44.9,12.0,30.04,NW,304,3.5,3.5,26,0.00,CLR,CLR,0.00,WeatherDisplay:10.36,2013-04-03 17:30:00,
2013-04-03 13:35:00,44.6,11.8,30.03,WSW,246,10.4,10.4,26,0.00,CLR,CLR,0.00,WeatherDisplay:10.36,2013-04-03 17:35:00,
2013-04-03 13:41:00,44.8,10.1,30.04,SSE,160,15.0,15.0,24,0.00,CLR,CLR,0.00,WeatherDisplay:10.36,2013-04-03 17:41:00,
2013-04-03 13:46:00,43.8,11.1,30.03,SW,219,10.0,10.0,26,0.00,CLR,CLR,0.00,WeatherDisplay:10.36,2013-04-03 17:46:00,
2013-04-03 13:51:00,43.9,10.3,30.04,NNW,329,12.7,12.7,25,0.00,CLR,CLR,0.00,WeatherDisplay:10.36,2013-04-03 17:51:00,
2013-04-03 13:56:00,44.2,11.4,30.04,WNW,300,5.0,5.0,26,0.00,CLR,CLR,0.00,WeatherDisplay:10.36,2013-04-03 17:56:00,
2013-04-03 14:01:00,44.5,10.8,30.03,WNW,295,3.5,3.5,25,0.00,CLR,CLR,0.00,WeatherDisplay:10.36,2013-04-03 18:01:00,
2013-04-03 14:06:00,45.2,10.5,30.03,West,271,7.0,7.0,24,0.00,CLR,CLR,0.00,WeatherDisplay:10.36,2013-04-03 18:06:00,
2013-04-03 14:11:00,45.2,9.5,30.04,WSW,250,4.0,4.0,23,0.00,CLR,CLR,0.00,WeatherDisplay:10.36,2013-04-03 18:11:00,
2013-04-03 14:16:00,44.6,10.0,30.03,WNW,289,3.5,3.5,24,0.00,CLR,CLR,0.00,WeatherDisplay:10.36,2013-04-03 18:16:00,
2013-04-03 14:21:00,44.5,9.9,30.03,NW,321,11.0,11.0,24,0.00,CLR,CLR,0.00,WeatherDisplay:10.36,2013-04-03 18:21:00,
2013-04-03 14:26:00,44.6,10.0,30.03,WSW,253,3.5,3.5,24,0.00,CLR,CLR,0.00,WeatherDisplay:10.36,2013-04-03 18:26:00,
2013-04-03 14:31:00,44.9,9.3,30.03,WNW,294,8.1,8.1,23,0.00,CLR,CLR,0.00,WeatherDisplay:10.36,2013-04-03 18:31:00,
2013-04-03 14:36:00,45.4,9.7,30.03,NW,316,3.5,3.5,23,0.00,CLR,CLR,0.00,WeatherDisplay:10.36,2013-04-03 18:36:00,
2013-04-03 14:42:00,44.6,10.0,30.02,NW,307,3.5,3.5,24,0.00,CLR,CLR,0.00,WeatherDisplay:10.36,2013-04-03 18:42:00,
2013-04-03 14:47:00,45.1,11.3,30.02,WSW,239,3.5,3.5,25,0.00,CLR,CLR,0.00,WeatherDisplay:10.36,2013-04-03 18:47:00,
2013-04-03 14:52:00,45.7,10.0,30.02,West,260,6.9,6.9,23,0.00,CLR,CLR,0.00,WeatherDisplay:10.36,2013-04-03 18:52:00,
2013-04-03 14:57:00,46.0,11.2,30.03,NW,315,4.6,4.6,24,0.00,CLR,CLR,0.00,WeatherDisplay:10.36,2013-04-03 18:57:00,
2013-04-03 15:02:00,45.7,10.0,30.03,WNW,300,4.0,4.0,23,0.00,CLR,CLR,0.00,WeatherDisplay:10.36,2013-04-03 19:02:00,
2013-04-03 15:07:00,45.1,8.5,30.03,WSW,245,10.4,10.4,22,0.00,CLR,CLR,0.00,WeatherDisplay:10.36,2013-04-03 19:07:00,
2013-04-03 15:12:00,44.5,10.8,30.03,WNW,285,4.0,4.0,25,0.00,CLR,CLR,0.00,WeatherDisplay:10.36,2013-04-03 19:12:00,
2013-04-03 15:18:00,44.1,8.6,30.03,West,264,11.5,11.5,23,0.00,CLR,CLR,0.00,WeatherDisplay:10.36,2013-04-03 19:18:00,
2013-04-03 15:23:00,43.6,8.2,30.03,WSW,255,3.5,3.5,23,0.00,CLR,CLR,0.00,WeatherDisplay:10.36,2013-04-03 19:23:00,
2013-04-03 15:29:00,43.5,9.0,30.03,West,278,6.9,6.9,24,0.00,CLR,CLR,0.00,WeatherDisplay:10.36,2013-04-03 19:29:00,
2013-04-03 15:34:00,43.1,8.7,30.03,WNW,300,5.8,5.8,24,0.00,CLR,CLR,0.00,WeatherDisplay:10.36,2013-04-03 19:34:00,
2013-04-03 15:39:00,43.3,8.9,30.03,SW,231,9.2,9.2,24,0.00,CLR,CLR,0.00,WeatherDisplay:10.36,2013-04-03 19:39:00,
2013-04-03 15:44:00,44.3,8.8,30.03,WNW,300,5.8,5.8,23,0.00,CLR,CLR,0.00,WeatherDisplay:10.36,2013-04-03 19:44:00,
2013-04-03 15:49:00,44.1,9.5,30.03,WNW,290,3.5,3.5,24,0.00,CLR,CLR,0.00,WeatherDisplay:10.36,2013-04-03 19:49:00,
2013-04-03 15:55:00,44.6,8.0,30.03,SSW,203,5.0,5.0,22,0.00,CLR,CLR,0.00,WeatherDisplay:10.36,2013-04-03 19:55:00,
2013-04-03 16:00:00,44.6,8.0,30.03,WNW,295,2.0,6.0,22,0.00,CLR,CLR,0.00,WeatherDisplay:10.36,2013-04-03 20:00:00,
2013-04-03 16:05:00,44.6,9.0,30.03,SSE,158,3.5,3.5,23,0.00,CLR,CLR,0.00,WeatherDisplay:10.36,2013-04-03 20:05:00,
2013-04-03 16:10:00,45.2,9.5,30.04,WNW,291,3.5,3.5,23,0.00,CLR,CLR,0.00,WeatherDisplay:10.36,2013-04-03 20:10:00,
2013-04-03 16:15:00,46.1,10.3,30.04,West,272,8.0,8.0,23,0.00,CLR,CLR,0.00,WeatherDisplay:10.36,2013-04-03 20:15:00,
2013-04-03 16:20:00,46.0,8.2,30.04,WNW,302,6.0,6.0,21,0.00,CLR,CLR,0.00,WeatherDisplay:10.36,2013-04-03 20:20:00,
2013-04-03 16:26:00,45.8,9.0,30.04,North,0,10.4,10.4,22,0.00,CLR,CLR,0.00,WeatherDisplay:10.36,2013-04-03 20:26:00,
2013-04-03 16:31:00,46.2,9.4,30.04,NW,323,4.0,4.0,22,0.00,CLR,CLR,0.00,WeatherDisplay:10.36,2013-04-03 20:31:00,
2013-04-03 16:36:00,46.2,10.4,30.04,NW,305,3.5,3.5,23,0.00,CLR,CLR,0.00,WeatherDisplay:10.36,2013-04-03 20:36:00,
2013-04-03 16:41:00,45.5,8.8,30.04,WSW,250,5.8,5.8,22,0.00,CLR,CLR,0.00,WeatherDisplay:10.36,2013-04-03 20:41:00,
2013-04-03 16:46:00,44.9,8.3,30.04,WSW,255,3.5,3.5,22,0.00,CLR,CLR,0.00,WeatherDisplay:10.36,2013-04-03 20:46:00,
2013-04-03 16:52:00,45.4,9.7,30.05,NW,313,5.8,5.8,23,0.00,CLR,CLR,0.00,WeatherDisplay:10.36,2013-04-03 20:52:00,
2013-04-03 16:57:00,45.4,8.7,30.05,NNW,342,10.4,10.4,22,0.00,CLR,CLR,0.00,WeatherDisplay:10.36,2013-04-03 20:57:00,
2013-04-03 17:02:00,45.4,7.7,30.05,WNW,300,9.0,9.0,21,0.00,CLR,CLR,0.00,WeatherDisplay:10.36,2013-04-03 21:02:00,
2013-04-03 17:07:00,44.8,8.2,30.05,WNW,290,10.4,10.4,22,0.00,CLR,CLR,0.00,WeatherDisplay:10.36,2013-04-03 21:07:00,
2013-04-03 17:12:00,44.2,7.7,30.05,WNW,282,5.8,5.8,22,0.00,CLR,CLR,0.00,WeatherDisplay:10.36,2013-04-03 21:12:00,
2013-04-03 17:17:00,44.3,7.8,30.05,WNW,298,4.0,4.0,22,0.00,CLR,CLR,0.00,WeatherDisplay:10.36,2013-04-03 21:17:00,
2013-04-03 17:22:00,44.3,6.7,30.05,WSW,245,10.4,10.4,21,0.00,CLR,CLR,0.00,WeatherDisplay:10.36,2013-04-03 21:22:00,
2013-04-03 17:27:00,44.5,6.9,30.05,WNW,288,5.0,5.0,21,0.00,CLR,CLR,0.00,WeatherDisplay:10.36,2013-04-03 21:27:00,
2013-04-03 17:32:00,44.3,7.8,30.06,NW,304,3.5,3.5,22,0.00,CLR,CLR,0.00,WeatherDisplay:10.36,2013-04-03 21:32:00,
2013-04-03 17:37:00,44.1,7.6,30.06,West,278,5.8,5.8,22,0.00,CLR,CLR,0.00,WeatherDisplay:10.36,2013-04-03 21:37:00,
2013-04-03 17:42:00,43.9,6.4,30.07,West,277,8.1,8.1,21,0.00,CLR,CLR,0.00,WeatherDisplay:10.36,2013-04-03 21:42:00,
2013-04-03 17:47:00,43.5,8.1,30.07,WNW,296,8.0,8.0,23,0.00,CLR,CLR,0.00,WeatherDisplay:10.36,2013-04-03 21:47:00,
2013-04-03 17:52:00,43.3,6.9,30.07,WSW,257,6.9,6.9,22,0.00,CLR,CLR,0.00,WeatherDisplay:10.36,2013-04-03 21:52:00,
2013-04-03 17:58:00,43.2,6.8,30.08,WNW,303,6.9,6.9,22,0.00,CLR,CLR,0.00,WeatherDisplay:10.36,2013-04-03 21:58:00,
2013-04-03 18:03:00,42.9,7.6,30.08,NW,309,8.0,8.0,23,0.00,CLR,CLR,0.00,WeatherDisplay:10.36,2013-04-03 22:03:00,
2013-04-03 18:08:00,42.6,7.3,30.08,WNW,302,6.0,6.0,23,0.00,CLR,CLR,0.00,WeatherDisplay:10.36,2013-04-03 22:08:00,
2013-04-03 18:13:00,42.5,7.2,30.08,WNW,288,4.6,4.6,23,0.00,CLR,CLR,0.00,WeatherDisplay:10.36,2013-04-03 22:13:00,
2013-04-03 18:18:00,42.5,7.2,30.09,NW,314,6.9,6.9,23,0.00,CLR,CLR,0.00,WeatherDisplay:10.36,2013-04-03 22:18:00,
2013-04-03 18:24:00,42.3,7.1,30.09,WNW,295,6.9,6.9,23,0.00,CLR,CLR,0.00,WeatherDisplay:10.36,2013-04-03 22:24:00,
2013-04-03 18:29:00,42.2,7.0,30.09,WNW,288,9.0,9.0,23,0.00,CLR,CLR,0.00,WeatherDisplay:10.36,2013-04-03 22:29:00,
2013-04-03 18:34:00,42.1,6.9,30.09,NW,304,5.0,5.0,23,0.00,CLR,CLR,0.00,WeatherDisplay:10.36,2013-04-03 22:34:00,
2013-04-03 18:39:00,41.6,6.5,30.10,West,280,10.4,10.4,23,0.00,CLR,CLR,0.00,WeatherDisplay:10.36,2013-04-03 22:39:00,
2013-04-03 18:44:00,41.3,6.2,30.10,NW,318,9.2,9.2,23,0.00,CLR,CLR,0.00,WeatherDisplay:10.36,2013-04-03 22:44:00,
2013-04-03 18:49:00,41.2,7.1,30.11,WNW,299,4.6,4.6,24,0.00,CLR,CLR,0.00,WeatherDisplay:10.36,2013-04-03 22:49:00,
2013-04-03 18:54:00,41.1,7.0,30.11,WSW,255,5.8,5.8,24,0.00,CLR,CLR,0.00,WeatherDisplay:10.36,2013-04-03 22:54:00,
2013-04-03 18:59:00,40.9,6.8,30.12,WNW,297,4.6,4.6,24,0.00,CLR,CLR,0.00,WeatherDisplay:10.36,2013-04-03 22:59:00,
2013-04-03 19:05:00,40.8,7.6,30.12,NW,323,4.6,4.6,25,0.00,CLR,CLR,0.00,WeatherDisplay:10.36,2013-04-03 23:05:00,
2013-04-03 19:10:00,40.5,7.4,30.12,WSW,239,2.3,2.3,25,0.00,CLR,CLR,0.00,WeatherDisplay:10.36,2013-04-03 23:10:00,
2013-04-03 19:15:00,40.3,8.1,30.12,WNW,286,2.0,4.0,26,0.00,CLR,CLR,0.00,WeatherDisplay:10.36,2013-04-03 23:15:00,
2013-04-03 19:20:00,40.1,7.0,30.12,SSE,167,5.8,5.8,25,0.00,CLR,CLR,0.00,WeatherDisplay:10.36,2013-04-03 23:20:00,
2013-04-03 19:25:00,40.0,6.9,30.13,WNW,295,2.0,5.0,25,0.00,CLR,CLR,0.00,WeatherDisplay:10.36,2013-04-03 23:25:00,
2013-04-03 19:30:00,39.8,7.6,30.13,WNW,303,3.0,6.0,26,0.00,CLR,CLR,0.00,WeatherDisplay:10.36,2013-04-03 23:30:00,
2013-04-03 19:35:00,39.6,7.5,30.13,WNW,302,3.0,9.0,26,0.00,CLR,CLR,0.00,WeatherDisplay:10.36,2013-04-03 23:35:00,
2013-04-03 19:40:00,39.3,8.0,30.14,NW,307,4.6,4.6,27,0.00,CLR,CLR,0.00,WeatherDisplay:10.36,2013-04-03 23:40:00,
2013-04-03 19:45:00,39.2,8.0,30.14,NE,50,3.5,3.5,27,0.00,CLR,CLR,0.00,WeatherDisplay:10.36,2013-04-03 23:45:00,
2013-04-03 19:50:00,39.1,7.9,30.14,West,264,3.5,3.5,27,0.00,CLR,CLR,0.00,WeatherDisplay:10.36,2013-04-03 23:50:00,
2013-04-03 19:55:00,38.9,7.7,30.15,West,278,3.5,3.5,27,0.00,CLR,CLR,0.00,WeatherDisplay:10.36,2013-04-03 23:55:00,
2013-04-03 20:00:00,38.8,7.6,30.15,WNW,288,5.0,5.0,27,0.00,CLR,CLR,0.00,WeatherDisplay:10.36,2013-04-04 00:00:00,
2013-04-03 20:05:00,38.6,8.2,30.15,WNW,283,1.2,2.0,28,0.00,CLR,CLR,0.00,WeatherDisplay:10.36,2013-04-04 00:05:00,
2013-04-03 20:11:00,38.5,8.2,30.16,SW,221,2.3,0.0,28,0.00,CLR,CLR,0.00,WeatherDisplay:10.36,2013-04-04 00:11:00,
2013-04-03 20:16:00,38.3,8.0,30.16,WNW,297,2.3,2.3,28,0.00,CLR,CLR,0.00,WeatherDisplay:10.36,2013-04-04 00:16:00,
2013-04-03 20:21:00,38.2,7.9,30.16,WNW,301,4.6,4.6,28,0.00,CLR,CLR,0.00,WeatherDisplay:10.36,2013-04-04 00:21:00,
2013-04-03 20:27:00,38.0,6.9,30.17,WNW,300,3.5,3.5,27,0.00,CLR,CLR,0.00,WeatherDisplay:10.36,2013-04-04 00:27:00,
2013-04-03 20:32:00,38.0,7.7,30.17,WNW,294,2.3,0.0,28,0.00,CLR,CLR,0.00,WeatherDisplay:10.36,2013-04-04 00:32:00,
2013-04-03 20:37:00,37.9,7.6,30.17,SW,231,1.2,1.2,28,0.00,CLR,CLR,0.00,WeatherDisplay:10.36,2013-04-04 00:37:00,
2013-04-03 20:42:00,37.8,7.6,30.17,WSW,255,2.3,2.3,28,0.00,CLR,CLR,0.00,WeatherDisplay:10.36,2013-04-04 00:42:00,
2013-04-03 20:47:00,37.6,8.2,30.18,SW,225,2.3,2.3,29,0.00,CLR,CLR,0.00,WeatherDisplay:10.36,2013-04-04 00:47:00,
2013-04-03 20:52:00,37.5,8.1,30.18,NW,323,3.5,3.5,29,0.00,CLR,CLR,0.00,WeatherDisplay:10.36,2013-04-04 00:52:00,
2013-04-03 20:57:00,37.3,7.9,30.18,NW,311,11.5,11.5,29,0.00,CLR,CLR,0.00,WeatherDisplay:10.36,2013-04-04 00:57:00,
2013-04-03 21:02:00,37.3,7.9,30.18,West,262,2.3,2.3,29,0.00,CLR,CLR,0.00,WeatherDisplay:10.36,2013-04-04 01:02:00,
2013-04-03 21:07:00,37.2,8.6,30.18,WNW,283,1.2,0.0,30,0.00,CLR,CLR,0.00,WeatherDisplay:10.36,2013-04-04 01:07:00,
2013-04-03 21:12:00,37.2,8.6,30.18,SW,231,3.5,3.5,30,0.00,CLR,CLR,0.00,WeatherDisplay:10.36,2013-04-04 01:12:00,
2013-04-03 21:17:00,37.0,8.4,30.19,West,276,5.8,5.8,30,0.00,CLR,CLR,0.00,WeatherDisplay:10.36,2013-04-04 01:17:00,
2013-04-03 21:22:00,36.9,9.0,30.19,SSW,204,3.5,3.5,31,0.00,CLR,CLR,0.00,WeatherDisplay:10.36,2013-04-04 01:22:00,
2013-04-03 21:27:00,36.8,8.9,30.19,WNW,283,3.5,3.5,31,0.00,CLR,CLR,0.00,WeatherDisplay:10.36,2013-04-04 01:27:00,
2013-04-03 21:33:00,36.6,8.8,30.19,WNW,290,4.6,4.6,31,0.00,CLR,CLR,0.00,WeatherDisplay:10.36,2013-04-04 01:33:00,
2013-04-03 21:38:00,36.6,9.5,30.20,WSW,257,2.3,2.3,32,0.00,CLR,CLR,0.00,WeatherDisplay:10.36,2013-04-04 01:38:00,
2013-04-03 21:43:00,36.5,8.7,30.20,WNW,297,3.5,3.5,31,0.00,CLR,CLR,0.00,WeatherDisplay:10.36,2013-04-04 01:43:00,
2013-04-03 21:48:00,36.5,9.4,30.20,WNW,295,3.5,3.5,32,0.00,CLR,CLR,0.00,WeatherDisplay:10.36,2013-04-04 01:48:00,
2013-04-03 21:53:00,36.3,9.2,30.20,WNW,295,1.2,0.0,32,0.00,CLR,CLR,0.00,WeatherDisplay:10.36,2013-04-04 01:53:00,
2013-04-03 21:58:00,36.2,9.1,30.20,NW,316,2.3,2.3,32,0.00,CLR,CLR,0.00,WeatherDisplay:10.36,2013-04-04 01:58:00,
2013-04-03 22:04:00,36.0,9.6,30.20,NW,316,1.2,1.2,33,0.00,CLR,CLR,0.00,WeatherDisplay:10.36,2013-04-04 02:04:00,
2013-04-03 22:09:00,35.9,9.5,30.20,WSW,250,3.5,3.5,33,0.00,CLR,CLR,0.00,WeatherDisplay:10.36,2013-04-04 02:09:00,
2013-04-03 22:14:00,35.8,9.5,30.20,WNW,287,4.0,4.0,33,0.00,CLR,CLR,0.00,WeatherDisplay:10.36,2013-04-04 02:14:00,
2013-04-03 22:19:00,35.8,9.5,30.20,West,268,1.2,1.2,33,0.00,CLR,CLR,0.00,WeatherDisplay:10.36,2013-04-04 02:19:00,
2013-04-03 22:24:00,35.6,9.9,30.20,NNW,328,3.5,3.5,34,0.00,CLR,CLR,0.00,WeatherDisplay:10.36,2013-04-04 02:24:00,
2013-04-03 22:29:00,35.5,9.9,30.20,NW,311,2.3,2.3,34,0.00,CLR,CLR,0.00,WeatherDisplay:10.36,2013-04-04 02:29:00,
2013-04-03 22:34:00,35.5,10.5,30.21,WNW,294,5.8,5.8,35,0.00,CLR,CLR,0.00,WeatherDisplay:10.36,2013-04-04 02:34:00,
2013-04-03 22:39:00,35.3,10.3,30.21,WNW,284,5.8,5.8,35,0.00,CLR,CLR,0.00,WeatherDisplay:10.36,2013-04-04 02:39:00,
2013-04-03 22:44:00,35.5,9.9,30.22,WNW,302,3.5,3.5,34,0.00,CLR,CLR,0.00,WeatherDisplay:10.36,2013-04-04 02:44:00,
2013-04-03 22:50:00,35.5,10.5,30.22,WNW,288,5.8,5.8,35,0.00,CLR,CLR,0.00,WeatherDisplay:10.36,2013-04-04 02:50:00,
2013-04-03 22:55:00,35.5,11.1,30.21,WNW,302,3.5,3.5,36,0.00,CLR,CLR,0.00,WeatherDisplay:10.36,2013-04-04 02:55:00,
2013-04-03 23:00:00,35.3,11.0,30.21,WNW,301,2.0,6.0,36,0.00,CLR,CLR,0.00,WeatherDisplay:10.36,2013-04-04 03:00:00,
2013-04-03 23:05:00,35.3,11.0,30.21,WNW,301,2.0,10.0,36,0.00,CLR,CLR,0.00,WeatherDisplay:10.36,2013-04-04 03:05:00,
2013-04-03 23:10:00,35.2,10.9,30.21,WNW,303,1.0,6.0,36,0.00,CLR,CLR,0.00,WeatherDisplay:10.36,2013-04-04 03:10:00,
2013-04-03 23:15:00,35.0,11.3,30.21,NNW,328,2.0,2.0,37,0.00,CLR,CLR,0.00,WeatherDisplay:10.36,2013-04-04 03:15:00,
2013-04-03 23:20:00,35.0,11.3,30.21,WNW,288,3.5,3.5,37,0.00,CLR,CLR,0.00,WeatherDisplay:10.36,2013-04-04 03:20:00,
2013-04-03 23:25:00,35.0,11.3,30.21,NW,319,4.6,4.6,37,0.00,CLR,CLR,0.00,WeatherDisplay:10.36,2013-04-04 03:25:00,
2013-04-03 23:30:00,34.9,11.2,30.20,WNW,302,3.5,3.5,37,0.00,CLR,CLR,0.00,WeatherDisplay:10.36,2013-04-04 03:30:00,
2013-04-03 23:35:00,34.9,11.8,30.21,NW,314,10.4,10.4,38,0.00,CLR,CLR,0.00,WeatherDisplay:10.36,2013-04-04 03:35:00,
2013-04-03 23:40:00,34.7,11.6,30.21,West,264,6.0,6.0,38,0.00,CLR,CLR,0.00,WeatherDisplay:10.36,2013-04-04 03:40:00,
2013-04-03 23:45:00,34.7,11.6,30.20,NW,311,5.0,5.0,38,0.00,CLR,CLR,0.00,WeatherDisplay:10.36,2013-04-04 03:45:00,
2013-04-03 23:50:00,34.7,12.2,30.20,WNW,298,4.6,4.6,39,0.00,CLR,CLR,0.00,WeatherDisplay:10.36,2013-04-04 03:50:00,
2013-04-03 23:55:00,34.7,12.2,30.21,North,356,1.2,1.2,39,0.00,CLR,CLR,0.00,WeatherDisplay:10.36,2013-04-04 03:55:00,